CW1675 Weather Reports


Display with metric or nautical units.
time (UTC)temp
F
wind
direction
speed
MPH
gust
MPH
rain 1hr
in
rain 24hr
in
rain mn
in
humidity
%
barometer
mb
20260831222907 61 212 5.0 8.0 0.00 0.11 0.00 87 1020.1
20260831220405 61 208 0.0 3.0 0.00 0.11 0.00 88 1019.9
20260831213904 61 233 2.0 5.0 0.00 0.11 0.11 89 1019.7
20260831211904 61 259 2.0 3.0 0.00 0.11 0.11 92 1019.6
20260831211405 60 309 2.0 3.0 0.00 0.11 0.11 92 1019.6
20260831210905 60 313 2.0 5.0 0.00 0.11 0.11 93 1019.5
20260831210405 60 279 2.0 6.0 0.00 0.11 0.11 94 1019.5
20260831204405 59 127 0.0 5.0 0.00 0.11 0.11 95 1019.4
20260831203905 59 88 0.0 2.0 0.00 0.11 0.11 95 1019.3
20260831202906 58 90 0.0 1.0 0.00 0.11 0.11 95 1019.3
20260831202405 58 86 0.0 0.0 0.00 0.11 0.11 95 1019.1
20260831195907 58 109 0.0 2.0 0.00 0.11 0.11 93 1019.0
20260831194905 58 168 0.0 1.0 0.00 0.11 0.11 92 1018.7
20260831193905 58 168 0.0 0.0 0.00 0.11 0.11 91 1018.5
20260831193404 59 168 0.0 0.0 0.00 0.11 0.11 91 1018.5
20260831191405 60 168 1.0 0.0 0.05 0.11 0.11 90 1018.3
20260831190405 60 169 1.0 3.0 0.05 0.11 0.11 89 1018.2
20260831185904 61 187 2.0 3.0 0.05 0.11 0.11 89 1018.2
20260831183904 61 245 5.0 8.0 0.07 0.11 0.11 88 1017.8
20260831182906 61 286 5.0 15.0 0.07 0.11 0.11 88 1017.8
20260831180405 62 237 5.0 12.0 0.02 0.06 0.06 86 1017.4
20260831175405 62 321 5.0 8.0 0.01 0.05 0.05 84 1017.2
20260831174405 63 297 7.0 8.0 0.00 0.04 0.04 83 1017.2
20260831173405 64 319 7.0 14.0 0.00 0.04 0.04 82 1016.9
20260831172906 65 328 7.0 13.0 0.00 0.04 0.04 80 1016.9
20260831172405 66 324 8.0 15.0 0.00 0.04 0.04 76 1016.4
20260831171405 67 268 6.0 18.0 0.00 0.04 0.04 67 1016.4
20260831170905 67 233 6.0 16.0 0.00 0.04 0.04 67 1016.2
20260831165405 68 306 8.0 22.0 0.01 0.04 0.04 66 1016.0
20260831162908 68 263 6.0 14.0 0.01 0.04 0.04 68 1015.8
20260831161905 67 261 7.0 15.0 0.01 0.04 0.04 69 1015.8
20260831161405 67 308 8.0 14.0 0.01 0.04 0.04 71 1015.8
20260831160904 67 262 7.0 15.0 0.01 0.04 0.04 72 1015.6
20260831160404 67 314 7.0 16.0 0.01 0.04 0.04 72 1015.6
20260831155906 67 311 7.0 28.0 0.01 0.04 0.04 70 1015.6
20260831155405 67 318 7.0 13.0 0.00 0.03 0.03 68 1015.5
20260831154405 67 301 5.0 13.0 0.00 0.03 0.03 68 1015.5
20260831153404 67 295 7.0 8.0 0.00 0.03 0.03 69 1015.6
20260831152905 67 277 6.0 9.0 0.00 0.03 0.03 70 1015.6
20260831151904 67 237 9.0 18.0 0.00 0.03 0.03 71 1015.5
20260831144404 67 253 10.0 23.0 0.00 0.03 0.03 71 1015.2
20260831143405 68 249 8.0 14.0 0.00 0.03 0.03 70 1014.9
20260831142905 68 260 8.0 14.0 0.00 0.03 0.03 69 1014.9
20260831141405 67 242 8.0 14.0 0.00 0.03 0.03 70 1014.9
20260831125906 68 234 9.0 24.0 0.00 0.03 0.03 70 1013.9
20260831124406 67 179 8.0 7.0 0.00 0.03 0.03 80 1013.7
20260831123404 67 179 9.0 7.0 0.01 0.03 0.03 80 1013.8
20260831121905 67 227 10.0 23.0 0.01 0.03 0.03 79 1013.7
20260831121404 67 222 10.0 17.0 0.01 0.03 0.03 77 1013.7
20260831120905 67 197 9.0 18.0 0.01 0.03 0.03 80 1013.8
20260831115905 66 215 11.0 18.0 0.01 0.03 0.03 83 1013.8
20260831115404 66 210 12.0 14.0 0.01 0.03 0.03 85 1013.9
20260831114406 65 212 10.0 30.0 0.01 0.03 0.03 82 1013.9
20260831113905 67 213 10.0 21.0 0.01 0.03 0.03 74 1013.5
20260831112906 68 197 10.0 18.0 0.00 0.02 0.02 72 1013.5
20260831110904 65 215 11.0 17.0 0.00 0.02 0.02 83 1013.9
20260831105905 65 221 12.0 18.0 0.00 0.02 0.02 80 1013.9
20260831104905 69 206 10.0 12.0 0.00 0.02 0.02 70 1013.6
20260831104404 69 206 10.0 12.0 0.00 0.02 0.02 70 1013.6
20260831103404 68 228 10.0 20.0 0.00 0.02 0.02 69 1013.5
20260831100904 67 233 9.0 20.0 0.00 0.02 0.02 72 1013.5
20260831095909 66 213 9.0 20.0 0.00 0.02 0.02 73 1013.5
20260831094905 66 215 8.0 18.0 0.00 0.02 0.02 74 1013.4
20260831094403 66 240 8.0 15.0 0.00 0.02 0.02 74 1013.4
20260831093404 65 259 9.0 15.0 0.00 0.02 0.02 75 1013.5
20260831092905 65 232 12.0 24.0 0.00 0.02 0.02 76 1013.5
20260831092404 65 231 13.0 18.0 0.00 0.02 0.02 78 1013.4
20260831091904 65 224 9.0 32.0 0.00 0.02 0.02 79 1013.4
20260831091404 64 250 8.0 17.0 0.00 0.02 0.02 83 1013.4
20260831090403 63 224 7.0 15.0 0.00 0.02 0.02 84 1013.4
20260831085905 64 238 13.0 13.0 0.00 0.02 0.02 82 1013.4
20260831085404 64 235 15.0 16.0 0.00 0.02 0.02 79 1013.3
20260831084404 65 216 10.0 29.0 0.00 0.02 0.02 74 1013.3
20260831083904 65 215 10.0 30.0 0.00 0.02 0.02 73 1013.2
20260831082906 65 212 9.0 21.0 0.00 0.02 0.02 76 1013.2
20260831082404 65 229 9.0 23.0 0.00 0.02 0.02 76 1013.3
20260831081904 65 201 9.0 17.0 0.00 0.02 0.02 77 1013.3
20260831081405 65 228 8.0 16.0 0.00 0.02 0.02 77 1013.3
20260831075906 64 206 8.0 18.0 0.00 0.02 0.02 78 1013.3
20260831075405 64 233 8.0 13.0 0.00 0.02 0.02 78 1013.2
20260831074404 64 211 9.0 14.0 0.00 0.02 0.02 77 1013.2
20260831073904 64 224 7.0 16.0 0.00 0.02 0.02 77 1013.2
20260831073403 64 203 7.0 21.0 0.00 0.02 0.02 77 1013.2
20260831071904 64 235 9.0 16.0 0.00 0.02 0.02 77 1013.2
20260831070404 64 212 9.0 21.0 0.00 0.02 0.02 78 1013.1
20260831065904 64 239 8.0 16.0 0.00 0.02 0.02 79 1013.1
20260831064904 64 202 9.0 15.0 0.00 0.02 0.02 79 1012.9
20260831064404 64 204 9.0 14.0 0.00 0.02 0.02 79 1012.9
20260831063904 64 206 9.0 16.0 0.00 0.02 0.02 79 1013.1
20260831062906 64 238 8.0 16.0 0.00 0.02 0.02 79 1013.1
20260831061904 64 202 8.0 16.0 0.00 0.02 0.02 81 1013.0
20260831061404 63 223 8.0 16.0 0.00 0.02 0.02 81 1013.0
20260831060904 63 201 8.0 15.0 0.00 0.02 0.02 81 1012.9
20260831060404 63 230 8.0 13.0 0.00 0.02 0.02 81 1012.9
20260831054904 63 212 7.0 13.0 0.00 0.02 0.02 82 1012.9
20260831054405 63 205 8.0 17.0 0.00 0.02 0.02 82 1012.9
20260831050403 63 198 6.0 9.0 0.00 0.02 0.02 84 1012.7
20260831045405 62 190 6.0 9.0 0.00 0.02 0.02 84 1012.7
20260831044904 62 198 6.0 9.0 0.00 0.02 0.02 84 1012.7
20260831043905 62 196 6.0 10.0 0.00 0.02 0.02 83 1012.7
20260831042404 63 190 7.0 15.0 0.00 0.02 0.02 83 1012.8
20260831034904 63 196 7.0 12.0 0.00 0.02 0.02 84 1012.7
20260831033403 63 196 6.0 13.0 0.00 0.02 0.02 85 1012.7
20260831032906 63 207 6.0 12.0 0.00 0.02 0.02 85 1012.7
20260831032404 63 198 6.0 13.0 0.00 0.02 0.02 85 1012.7
20260831031405 63 198 6.0 9.0 0.00 0.02 0.02 84 1012.7
20260831030917 63 218 6.0 13.0 0.00 0.02 0.02 84 1012.8
20260831030407 63 212 6.0 13.0 0.00 0.02 0.02 84 1012.8
20260831025411 63 217 8.0 12.0 0.00 0.02 0.02 85 1012.8
20260831022403 64 219 7.0 10.0 0.00 0.02 0.02 85 1012.6
20260831021904 64 226 6.0 14.0 0.00 0.02 0.02 85 1012.6
20260831020904 64 224 7.0 13.0 0.00 0.02 0.02 86 1012.5
20260831015905 64 200 5.0 16.0 0.00 0.02 0.02 86 1012.5
20260831015404 64 187 5.0 14.0 0.00 0.02 0.02 86 1012.6
20260831013404 63 166 5.0 8.0 0.02 0.02 0.02 87 1012.6
20260831012905 64 230 5.0 9.0 0.02 0.02 0.02 87 1012.6
20260831011404 64 198 5.0 7.0 0.02 0.02 0.02 85 1012.6
20260831010905 64 219 3.0 8.0 0.02 0.02 0.02 85 1012.7
20260831010404 64 193 3.0 7.0 0.02 0.02 0.02 84 1012.7
20260831005905 64 165 3.0 6.0 0.02 0.02 0.02 83 1012.7
20260831005403 65 211 3.0 7.0 0.02 0.02 0.02 82 1012.8
20260831004904 65 232 5.0 6.0 0.02 0.02 0.02 81 1012.8
20260831003904 65 232 6.0 9.0 0.00 0.00 0.00 78 1012.4
20260831002906 65 176 6.0 10.0 0.00 0.00 0.00 76 1012.4
20260831000404 66 163 6.0 8.0 0.00 0.00 0.00 72 1012.6
20260830233904 65 162 3.0 7.0 0.00 0.02 0.00 74 1012.5
20260830232905 65 166 3.0 8.0 0.00 0.02 0.00 75 1012.5
20260830231404 65 159 3.0 5.0 0.00 0.02 0.00 76 1012.4
20260830230404 65 160 2.0 6.0 0.00 0.03 0.00 76 1012.6
20260830225905 64 155 3.0 5.0 0.00 0.03 0.00 76 1012.6
20260830224404 64 153 3.0 5.0 0.00 0.03 0.00 77 1012.6